Location: Hastringsfeld
(50.9620°N, 10.4787°E)
Time: 13:55:55
(UTC+00:00)

IDEFIX/ARIANE 42P - Pass Details

Date: 26 September 2023
Orbit: 782 x 801 km, 98.5° (Epoch: 10 December)

Event Time Altitude Azimuth Distance (km) Brightness Sun altitude
Rises 02:47:46 0° 7° (N) 3,325 6.3 -22.4°
Reaches altitude 10° 02:50:31 10° 353° (N) 2,391 5.3 -22.0°
Maximum altitude 02:54:36 23° 303° (WNW) 1,640 3.9 -21.4°
Enters shadow 02:54:36 23° 303° (WNW) 1,640 3.9 -21.4°
